Wind_Speed
26 27 28 29 30 31 32 33 34 35 36 37 39 40 41 42 43 44 45 45 46 47 48 49 50 50 51 52 52 53 54 55 56 57 59 60 62 63 64 65 67 68 69
30 30 31 33 34 35 36 37 38 39 40 42 43 44 44 45 46 46 47 48 48 49 49 50 51 52 53 53 54 55 56 57 58 59 60 62 63 65 67 68 69 70 72
34 34 36 37 38 39 40 42 43 44 45 46 47 48 48 49 49 49 50 50 50 51 51 52 53 54 54 55 56 57 58 59 60 61 62 63 65 67 69 70 72 73 74
37 38 39 41 42 43 44 46 47 48 49 50 50 51 51 52 52 52 53 53 53 54 54 55 55 56 56 57 57 59 60 61 62 63 64 65 67 68 70 72 74 76 77
41 42 43 44 45 46 48 49 51 52 53 53 54 54 54 55 54 55 56 56 57 57 57 57 57 58 58 58 59 60 61 62 64 65 66 67 68 70 72 73 75 77 79
45 46 46 48 49 50 51 53 54 55 56 57 57 57 57 57 57 57 58 58 59 59 59 59 60 60 60 60 61 62 63 64 65 66 67 69 70 71 73 74 76 78 80
48 49 50 51 53 54 55 56 58 59 59 60 60 59 59 59 59 59 59 59 60 61 61 61 61 62 62 62 63 64 65 65 66 67 68 70 71 72 74 75 76 78 80
51 53 54 55 56 57 58 60 61 62 62 62 62 62 61 60 61 61 61 61 61 61 61 62 62 63 64 64 64 65 66 66 67 68 69 71 72 73 74 75 76 78 79
55 56 57 59 60 61 62 63 64 64 64 64 63 64 64 63 63 62 61 61 61 60 61 62 63 64 65 65 65 65 66 67 68 69 70 71 72 73 75 76 77 78 79
58 60 61 62 63 64 65 65 66 66 66 65 65 65 65 65 65 64 62 61 60 60 62 63 63 65 65 65 65 65 66 67 68 69 70 71 73 74 75 77 78 79 81
61 62 63 64 65 66 67 67 68 67 67 66 66 66 66 66 66 65 64 62 61 61 62 63 64 65 65 65 65 66 66 66 67 69 70 72 73 74 76 77 79 80 82
62 63 64 65 66 67 68 69 69 68 67 67 67 68 67 67 66 66 65 62 62 62 63 64 64 65 65 65 65 65 66 67 68 70 71 72 73 74 76 78 79 81 82
64 65 66 67 67 68 68 69 69 68 68 68 68 68 68 67 66 66 65 63 63 63 63 64 65 65 65 65 65 65 66 68 69 70 71 72 73 74 76 78 79 80 80
66 67 68 68 68 68 68 68 68 68 68 68 67 67 67 66 66 66 65 65 64 63 63 64 65 65 64 64 65 66 66 68 69 70 71 72 73 74 76 77 77 77 78
67 68 69 69 68 68 68 68 68 68 68 67 66 66 66 66 67 66 65 65 65 65 64 63 64 64 64 64 65 66 66 67 69 69 71 72 73 74 75 75 75 75 74
67 68 69 69 69 68 68 68 67 67 67 66 67 67 67 67 67 66 65 65 65 65 63 61 62 63 64 65 65 66 66 67 68 69 70 71 72 73 73 72 72 71 70
66 67 67 67 67 67 67 66 65 66 67 67 66 66 66 66 66 65 65 65 64 64 62 60 61 62 63 64 65 65 65 66 67 68 69 70 70 70 70 69 67 66 63
64 64 64 63 64 64 65 65 65 66 66 65 65 65 65 65 65 64 64 64 63 63 62 60 60 61 62 63 64 64 64 65 66 67 68 68 67 67 66 64 62 60 57
61 61 61 62 63 64 64 64 65 64 63 63 63 63 63 64 64 63 62 62 61 61 61 60 59 60 60 62 62 62 63 64 64 65 65 64 64 63 61 59 58 55 51
60 61 62 62 63 63 64 63 62 62 62 62 62 62 62 62 62 61 61 60 61 60 59 59 58 59 59 60 61 61 61 62 62 62 62 61 60 58 56 55 54 51 47
60 61 62 62 63 63 63 62 62 62 61 62 61 61 61 61 60 60 60 60 59 59 58 58 58 58 58 59 60 61 61 60 60 60 60 58 57 55 53 52 51 47 44
59 59 60 60 61 61 62 62 62 61 61 61 60 60 60 60 60 59 59 58 58 58 58 58 58 57 57 58 59 60 60 60 58 57 58 55 54 52 50 49 47 44 41
58 58 59 60 60 60 61 61 61 61 60 60 60 60 60 59 59 58 58 58 57 57 57 57 56 56 56 57 58 58 58 57 56 54 55 52 50 49 47 46 44 41 38
59 59 60 60 60 60 60 60 60 61 60 60 60 60 59 58 57 57 57 56 56 55 55 55 55 55 55 56 56 56 55 54 52 51 53 51 47 46 44 43 42 38 36
59 59 60 60 59 59 59 59 60 61 60 59 58 58 57 56 56 56 56 55 54 53 53 53 53 53 54 53 54 54 53 52 50 48 50 49 46 44 41 39 39 36 34
58 58 58 58 58 58 59 59 60 60 59 58 57 56 56 55 55 55 54 52 51 51 51 50 51 51 51 51 51 51 51 50 49 46 46 46 43 42 37 35 36 34 32
Wind_Direction
298 299 300 301 301 302 303 304 304 304 304 304 303 302 300 298 295 292 290 287 285 283 280 279 277 276 275 274 272 271 269 268 267 266 265 263 262 261 260 259 258 257 256
295 296 297 298 299 300 300 301 302 303 303 303 302 302 301 299 297 294 292 289 287 285 283 281 279 278 277 276 274 273 272 270 269 267 266 265 263 262 261 259 258 257 256
293 294 295 296 297 298 299 299 300 301 302 302 302 302 301 300 298 296 293 291 288 286 285 283 281 280 279 278 276 275 274 273 271 270 269 267 265 264 262 261 259 257 256
292 293 294 295 296 297 297 298 299 300 300 301 301 301 300 299 299 297 295 292 290 288 286 285 284 282 281 280 279 277 276 275 274 273 271 270 268 267 265 263 261 259 257
291 292 294 294 295 296 296 297 297 298 299 299 299 300 299 298 297 297 295 293 292 290 288 286 285 284 283 282 281 280 279 278 277 275 274 273 271 270 268 266 264 261 259
291 292 293 294 294 295 295 296 296 297 297 298 298 298 298 298 297 296 295 294 292 291 289 288 287 286 285 284 283 282 281 280 279 278 277 276 274 273 271 269 266 264 261
290 291 292 293 293 294 294 294 295 295 296 297 297 297 297 297 297 296 295 294 293 291 290 289 287 287 286 286 285 284 283 282 281 281 280 279 278 276 274 271 269 266 263
289 290 291 292 292 293 293 294 294 294 295 296 296 296 296 295 295 295 294 293 292 291 290 289 288 287 287 286 286 286 285 284 283 283 282 282 280 278 276 274 271 268 265
289 290 291 291 291 292 293 293 293 294 295 295 295 296 295 295 294 294 293 293 292 291 290 289 289 289 288 287 287 287 286 285 285 284 284 283 282 281 279 276 274 271 268
288 289 290 290 291 292 292 293 293 294 294 295 295 295 295 295 296 295 294 293 292 292 291 290 290 290 289 288 288 288 287 287 286 286 285 285 284 282 281 279 277 274 272
288 289 289 290 290 291 291 292 292 293 294 294 295 295 295 295 295 296 295 294 293 292 292 292 292 291 290 290 289 289 288 288 287 287 287 286 285 284 282 281 279 277 275
287 288 288 289 290 290 291 292 293 293 294 294 295 295 295 295 295 296 295 295 293 292 292 292 292 292 291 291 290 290 289 289 289 288 288 288 287 286 285 283 282 280 278
287 288 288 289 290 290 291 292 293 293 294 294 294 295 295 295 295 295 295 294 294 293 293 293 293 292 292 292 291 291 290 290 290 290 289 289 289 288 287 286 284 282 279
287 288 289 289 290 291 292 292 293 294 294 294 294 294 294 295 295 294 294 294 294 294 294 294 293 293 293 292 292 292 292 292 292 292 291 291 291 290 289 288 286 284 282
289 289 290 291 291 291 292 292 293 293 293 294 294 293 294 295 295 295 294 294 294 294 294 294 294 293 293 293 293 294 294 294 294 294 293 293 293 293 292 290 288 287 284
290 291 291 292 292 292 292 292 293 292 292 293 293 293 293 294 294 294 294 294 294 294 294 295 294 294 294 294 294 295 295 296 296 296 295 295 295 294 293 292 290 289 286
291 291 292 292 293 293 293 293 293 293 293 293 292 292 293 293 293 293 294 294 294 294 294 294 294 295 295 295 296 296 297 298 297 297 297 297 297 296 295 294 292 290 286
292 292 293 294 294 294 294 294 294 294 293 293 292 292 292 292 293 293 293 293 293 293 294 294 295 295 296 296 297 297 298 299 299 299 298 298 298 297 296 295 293 291 286
293 293 293 294 294 295 295 295 295 294 293 293 293 292 292 292 293 292 292 292 292 292 293 294 295 296 297 297 297 298 300 300 300 300 300 300 299 298 297 296 294 291 285
293 293 294 295 295 295 295 295 294 294 293 293 293 293 293 293 292 291 292 292 292 292 293 294 296 296 297 298 298 300 301 301 301 301 301 301 300 299 299 297 295 291 284
294 294 295 295 295 295 295 294 294 293 293 293 293 293 292 292 291 291 291 291 291 291 293 294 296 297 298 299 300 301 302 302 303 303 303 303 302 301 299 297 296 291 282
296 296 296 296 296 295 295 294 293 294 294 294 294 293 292 291 290 290 291 291 291 291 292 294 296 298 299 299 300 301 303 304 304 304 304 304 302 302 300 298 296 289 279
298 297 297 297 297 296 295 295 294 294 294 293 293 292 292 291 290 290 290 290 290 291 292 294 296 298 299 300 301 302 304 305 306 305 304 305 304 303 301 299 296 288 278
299 298 298 298 297 297 296 295 295 295 294 293 293 292 291 290 290 289 289 289 290 291 292 295 297 298 299 300 301 303 304 305 306 306 305 306 305 304 302 299 296 287 278
300 300 300 299 299 298 297 296 296 295 295 294 293 291 290 289 289 289 289 289 290 291 292 294 296 298 300 300 302 303 305 306 308 307 305 306 306 304 302 300 296 288 277
301 301 301 301 300 299 298 298 297 296 296 294 293 292 291 289 288 288 288 289 289 290 291 293 296 298 299 300 301 303 305 307 308 308 305 305 305 305 303 300 296 287 276
Height
5817 5815 5814 5812 5809 5807 5805 5803 5801 5798 5795 5793 5790 5788 5785 5782 5780 5777 5774 5772 5770 5768 5766 5764 5763 5762 5761 5760 5759 5759 5759 5758 5758 5759 5759 5760 5761 5763 5764 5766 5769 5772 5775
5811 5809 5807 5805 5802 5800 5798 5795 5792 5790 5787 5784 5781 5778 5775 5772 5769 5766 5763 5760 5758 5755 5753 5751 5749 5748 5747 5746 5745 5744 5743 5743 5743 5743 5744 5744 5745 5746 5748 5750 5752 5755 5758
5803 5801 5799 5797 5794 5792 5789 5786 5783 5780 5777 5774 5771 5767 5764 5760 5757 5754 5751 5748 5745 5742 5740 5737 5735 5733 5732 5730 5729 5728 5727 5726 5726 5726 5726 5727 5727 5728 5730 5732 5734 5736 5739
5795 5793 5791 5788 5785 5782 5779 5775 5772 5769 5766 5762 5759 5756 5752 5748 5744 5741 5737 5734 5731 5728 5725 5722 5720 5718 5716 5714 5712 5711 5709 5708 5708 5707 5707 5707 5708 5709 5710 5711 5713 5716 5719
5786 5784 5781 5778 5775 5772 5768 5765 5761 5758 5754 5751 5747 5743 5739 5736 5732 5728 5723 5720 5716 5713 5710 5707 5704 5702 5699 5697 5695 5693 5691 5690 5689 5688 5687 5687 5687 5687 5688 5689 5691 5693 5696
5776 5774 5771 5768 5764 5761 5757 5753 5749 5745 5741 5737 5734 5731 5726 5722 5718 5714 5709 5705 5701 5697 5694 5691 5688 5685 5682 5680 5677 5675 5672 5670 5669 5668 5666 5666 5665 5665 5665 5665 5667 5669 5671
5766 5763 5760 5756 5752 5749 5745 5741 5736 5732 5728 5723 5720 5716 5713 5708 5704 5699 5695 5690 5685 5681 5677 5674 5670 5667 5664 5662 5658 5655 5653 5651 5649 5647 5645 5643 5642 5641 5640 5640 5641 5643 5645
5755 5752 5748 5744 5740 5736 5732 5727 5723 5718 5714 5710 5705 5701 5698 5695 5690 5685 5681 5675 5670 5666 5661 5657 5653 5650 5646 5643 5640 5636 5633 5630 5628 5625 5623 5620 5618 5616 5615 5615 5615 5616 5617
5744 5740 5735 5731 5726 5722 5718 5713 5708 5704 5699 5695 5691 5686 5681 5677 5673 5671 5666 5661 5655 5650 5645 5640 5636 5632 5628 5625 5621 5618 5614 5611 5607 5604 5601 5598 5595 5592 5590 5589 5588 5588 5589
5730 5726 5722 5717 5712 5708 5703 5698 5693 5689 5684 5679 5675 5671 5665 5660 5655 5651 5649 5644 5639 5634 5628 5623 5619 5614 5610 5606 5602 5599 5595 5591 5587 5583 5579 5575 5572 5568 5565 5563 5561 5560 5559
5717 5713 5708 5702 5698 5693 5688 5683 5678 5673 5668 5663 5658 5654 5649 5643 5638 5634 5630 5627 5622 5617 5612 5607 5602 5596 5592 5588 5584 5579 5575 5571 5566 5562 5557 5553 5548 5544 5540 5536 5533 5531 5528
5704 5699 5693 5688 5683 5677 5672 5667 5662 5657 5652 5647 5642 5637 5632 5627 5623 5617 5613 5610 5605 5600 5594 5589 5584 5578 5574 5569 5565 5560 5556 5551 5545 5540 5535 5530 5524 5519 5514 5509 5505 5501 5497
5688 5684 5678 5673 5667 5662 5656 5650 5645 5641 5636 5631 5625 5620 5615 5611 5606 5600 5595 5591 5587 5583 5577 5572 5565 5560 5555 5550 5546 5540 5535 5529 5524 5518 5512 5506 5500 5494 5488 5482 5476 5470 5465
5672 5667 5661 5657 5652 5646 5640 5634 5629 5624 5618 5613 5608 5603 5597 5593 5588 5583 5578 5573 5568 5565 5560 5555 5547 5541 5536 5531 5526 5520 5515 5508 5502 5495 5489 5482 5475 5468 5461 5454 5447 5440 5434
5655 5649 5644 5639 5635 5629 5623 5617 5612 5607 5601 5596 5591 5585 5580 5575 5570 5565 5560 5555 5550 5546 5543 5538 5530 5523 5517 5512 5506 5500 5494 5487 5480 5473 5465 5458 5450 5443 5434 5426 5418 5411 5404
5639 5632 5627 5622 5617 5611 5605 5600 5595 5589 5583 5578 5573 5568 5563 5558 5552 5547 5542 5536 5531 5527 5524 5521 5512 5505 5499 5493 5486 5480 5474 5467 5459 5450 5442 5434 5426 5417 5408 5400 5391 5383 5376
5623 5616 5610 5604 5599 5594 5588 5582 5577 5572 5566 5561 5556 5550 5545 5540 5535 5529 5524 5519 5514 5509 5505 5503 5495 5488 5481 5474 5467 5460 5454 5446 5438 5429 5420 5411 5403 5393 5384 5375 5367 5359 5351
5607 5600 5594 5588 5582 5577 5571 5566 5560 5554 5549 5543 5538 5533 5528 5522 5517 5512 5507 5501 5496 5491 5487 5484 5478 5470 5463 5455 5449 5442 5435 5426 5418 5409 5400 5390 5381 5371 5362 5353 5345 5337 5330
5591 5584 5578 5572 5566 5560 5554 5548 5542 5537 5531 5526 5521 5516 5511 5505 5500 5495 5489 5484 5479 5474 5469 5465 5461 5453 5446 5438 5431 5424 5416 5407 5399 5389 5380 5371 5361 5351 5342 5333 5325 5318 5311
5574 5568 5562 5556 5550 5543 5536 5530 5524 5519 5514 5509 5504 5499 5493 5488 5483 5477 5472 5467 5461 5457 5452 5447 5443 5436 5429 5420 5413 5406 5399 5390 5381 5371 5362 5352 5342 5333 5324 5316 5308 5301 5295
5558 5552 5546 5540 5533 5526 5519 5513 5507 5502 5497 5492 5487 5481 5476 5470 5465 5459 5454 5449 5444 5439 5435 5430 5425 5419 5412 5403 5396 5388 5381 5373 5364 5353 5344 5335 5325 5317 5309 5300 5292 5285 5280
5542 5535 5529 5523 5516 5509 5502 5495 5489 5484 5479 5474 5469 5464 5458 5452 5447 5442 5437 5432 5427 5423 5418 5413 5408 5402 5395 5386 5379 5371 5363 5356 5349 5339 5327 5320 5309 5302 5294 5286 5278 5272 5267
5526 5519 5513 5506 5500 5492 5485 5478 5471 5467 5462 5457 5451 5446 5440 5435 5429 5425 5420 5415 5410 5406 5401 5396 5391 5385 5378 5370 5362 5355 5346 5338 5331 5321 5311 5305 5296 5288 5280 5272 5265 5259 5255
5510 5503 5496 5489 5483 5476 5467 5461 5454 5449 5444 5439 5433 5428 5423 5418 5413 5408 5403 5399 5394 5389 5384 5380 5375 5369 5361 5354 5346 5339 5331 5324 5317 5306 5295 5289 5283 5275 5267 5260 5253 5247 5244
5493 5486 5479 5472 5465 5458 5450 5443 5436 5431 5426 5421 5415 5410 5405 5401 5396 5390 5386 5383 5379 5374 5368 5364 5359 5352 5345 5338 5330 5323 5316 5309 5303 5295 5283 5275 5269 5262 5257 5249 5242 5237 5234
5477 5470 5463 5455 5448 5441 5433 5426 5418 5413 5408 5402 5397 5393 5388 5383 5378 5373 5370 5367 5364 5359 5354 5349 5344 5338 5331 5324 5316 5309 5302 5295 5288 5282 5273 5263 5257 5250 5246 5241 5233 5228 5224